Weather in Denav

Uzbekistan     39°08′05″N   66°54′53″E
temp.,
°C
wind,
m/s
gust,
m/s
humid.,
%
clouds,
%
prec.,
mm/h
press.,
hPa
HPBL,
m
25 february, thu
thu2523:00−7ssw3496100 4.2 1031380
02:00−7s4596100 1.3 1035347
05:00−11ssw4496100 1.5 1037210
08:00−14s1278100 0.0 103943
11:00−10sw346793 0.0 1039310
14:00−9ssw226499 0.0 1038375
17:00−9s1267100 0.0 1037188
20:00−11ne2367100 0.0 103828
26 february, fri
fri2623:00−12ne2267100 0.0 103723
02:00−12ne2266100 0.0 103525
05:00−12e116087 0.0 103422
08:00−11se115810 0.0 103422
11:00−5sw225911 0.0 1032234
14:00−4sw22650 0.0 1029381
17:00−5sw11700 0.0 1028234
20:00−9ese126635 0.0 102921
27 february, sat
sat2723:00−7sse127468 0.0 102921
02:00−7sse1272100 0.0 102823
05:00−6s1168100 0.0 102823
08:00−6sse1168100 0.0 102925
11:00−2sw1257100 0.0 1029300
14:00−1sw11629 0.0 1027354
17:00−1nne01674 0.0 1026272
20:00−4ne22740 0.0 102721
28 february, sun
sun2823:00−4ne33720 0.0 102625
02:00−3ne23660 0.0 102422
05:00−2ne33600 0.0 102223
08:00−1ne33550 0.0 102224
11:00+4nne11550 0.0 1019111
14:00+7n11400 0.0 1017298
17:00+6ne11560 0.0 101738
20:00+2ene22450 0.0 101822
1 march, mon
mon123:00+3e12370 0.0 101922
02:00+3ese12370 0.0 101922
05:00+3ese23310 0.0 101923
08:00+5ese23350 0.0 101924
11:00+11s233517 0.0 1019195
14:00+14sw611300 0.0 10182637
17:00+11wsw58390 0.0 1018238
20:00+5se22430 0.0 102122